| time (UTC) | temp F | wind direction | speed MPH | gust MPH | rain 1hr in | rain 24hr in | rain mn in | humidity % | barometer mb |
| 20260507070010 | 52 | 227 | 0.0 | 0.0 | 0.00 | 0.01 | 0.00 | 89 | 1020.9 |
| 20260507065005 | 52 | 227 | 0.0 | 2.0 | 0.00 | 0.01 | 0.01 | 88 | 1020.8 |
| 20260507063005 | 53 | 250 | 1.0 | 3.0 | 0.00 | 0.01 | 0.01 | 86 | 1020.8 |
| 20260507062005 | 53 | 233 | 2.0 | 3.0 | 0.00 | 0.01 | 0.01 | 85 | 1021.0 |
| 20260507060005 | 53 | 313 | 0.0 | 2.0 | 0.00 | 0.01 | 0.01 | 83 | 1020.9 |
| 20260507055005 | 54 | 258 | 1.0 | 2.0 | 0.00 | 0.01 | 0.01 | 83 | 1020.9 |
| 20260507054006 | 54 | 205 | 0.0 | 5.0 | 0.00 | 0.01 | 0.01 | 83 | 1020.8 |
| 20260507053005 | 54 | 239 | 2.0 | 5.0 | 0.00 | 0.01 | 0.01 | 82 | 1020.8 |
| 20260507052005 | 54 | 221 | 2.0 | 3.0 | 0.00 | 0.01 | 0.01 | 82 | 1020.9 |
| 20260507051005 | 54 | 239 | 1.0 | 3.0 | 0.00 | 0.01 | 0.01 | 82 | 1020.9 |
| 20260507050006 | 54 | 248 | 2.0 | 3.0 | 0.00 | 0.01 | 0.01 | 82 | 1020.8 |
| 20260507045005 | 54 | 229 | 0.0 | 2.0 | 0.00 | 0.01 | 0.01 | 82 | 1020.8 |
| 20260507044006 | 54 | 229 | 1.0 | 1.0 | 0.00 | 0.01 | 0.01 | 82 | 1020.8 |
| 20260507043005 | 54 | 223 | 0.0 | 2.0 | 0.00 | 0.01 | 0.01 | 82 | 1020.8 |
| 20260507042005 | 54 | 228 | 2.0 | 3.0 | 0.00 | 0.01 | 0.01 | 84 | 1020.9 |
| 20260507040005 | 54 | 188 | 0.0 | 1.0 | 0.00 | 0.01 | 0.01 | 84 | 1020.8 |
| 20260507033005 | 55 | 87 | 0.0 | 0.0 | 0.00 | 0.01 | 0.01 | 83 | 1020.3 |
| 20260507031005 | 55 | 96 | 0.0 | 2.0 | 0.00 | 0.01 | 0.01 | 82 | 1020.1 |
| 20260507030005 | 55 | 74 | 1.0 | 2.0 | 0.00 | 0.01 | 0.01 | 82 | 1020.2 |
| 20260507025005 | 55 | 74 | 1.0 | 1.0 | 0.00 | 0.01 | 0.01 | 82 | 1020.2 |
| 20260507024005 | 55 | 74 | 1.0 | 2.0 | 0.00 | 0.01 | 0.01 | 82 | 1020.1 |
| 20260507023006 | 55 | 74 | 1.0 | 2.0 | 0.00 | 0.01 | 0.01 | 81 | 1020.0 |
| 20260507022005 | 55 | 74 | 0.0 | 0.0 | 0.00 | 0.01 | 0.01 | 81 | 1020.1 |
| 20260507021005 | 55 | 74 | 0.0 | 2.0 | 0.00 | 0.01 | 0.01 | 81 | 1020.1 |
| 20260507020005 | 55 | 64 | 0.0 | 0.0 | 0.00 | 0.01 | 0.01 | 81 | 1020.1 |
| 20260507015005 | 55 | 64 | 0.0 | 2.0 | 0.00 | 0.01 | 0.01 | 81 | 1020.1 |
| 20260507014005 | 55 | 64 | 1.0 | 2.0 | 0.00 | 0.01 | 0.01 | 81 | 1020.0 |
| 20260507013005 | 55 | 97 | 0.0 | 3.0 | 0.00 | 0.01 | 0.01 | 81 | 1020.0 |
| 20260507012005 | 55 | 74 | 2.0 | 3.0 | 0.00 | 0.01 | 0.01 | 80 | 1020.0 |
| 20260507011005 | 56 | 76 | 0.0 | 2.0 | 0.00 | 0.01 | 0.01 | 80 | 1020.1 |
| 20260507010005 | 56 | 78 | 1.0 | 2.0 | 0.00 | 0.01 | 0.01 | 79 | 1020.1 |
| 20260507005005 | 56 | 352 | 0.0 | 1.0 | 0.00 | 0.01 | 0.01 | 79 | 1020.2 |
| 20260507004005 | 56 | 348 | 0.0 | 2.0 | 0.00 | 0.01 | 0.01 | 79 | 1020.2 |
| 20260507002005 | 56 | 87 | 2.0 | 3.0 | 0.00 | 0.01 | 0.01 | 79 | 1020.3 |
| 20260507000005 | 56 | 5 | 0.0 | 2.0 | 0.00 | 0.01 | 0.01 | 78 | 1020.3 |
| 20260506235005 | 56 | 345 | 0.0 | 1.0 | 0.00 | 0.01 | 0.01 | 78 | 1020.4 |
| 20260506234005 | 56 | 344 | 1.0 | 3.0 | 0.00 | 0.01 | 0.01 | 78 | 1020.3 |
| 20260506233005 | 56 | 338 | 1.0 | 2.0 | 0.00 | 0.01 | 0.01 | 79 | 1020.3 |
| 20260506232005 | 56 | 336 | 1.0 | 2.0 | 0.00 | 0.01 | 0.01 | 79 | 1020.3 |
| 20260506231005 | 56 | 319 | 2.0 | 3.0 | 0.00 | 0.01 | 0.01 | 78 | 1020.3 |
| 20260506230005 | 56 | 327 | 1.0 | 2.0 | 0.00 | 0.01 | 0.01 | 80 | 1020.3 |
| 20260506225004 | 55 | 346 | 1.0 | 3.0 | 0.00 | 0.01 | 0.01 | 80 | 1020.3 |
| 20260506224004 | 55 | 333 | 1.0 | 2.0 | 0.00 | 0.01 | 0.01 | 81 | 1020.4 |
| 20260506221005 | 55 | 355 | 1.0 | 3.0 | 0.00 | 0.01 | 0.01 | 82 | 1020.5 |
| 20260506220012 | 55 | 336 | 1.0 | 3.0 | 0.00 | 0.01 | 0.01 | 83 | 1020.5 |
| 20260506215006 | 55 | 315 | 1.0 | 3.0 | 0.00 | 0.01 | 0.01 | 82 | 1020.5 |
| 20260506214005 | 56 | 328 | 2.0 | 5.0 | 0.00 | 0.01 | 0.01 | 83 | 1020.5 |
| 20260506213005 | 56 | 314 | 2.0 | 3.0 | 0.00 | 0.01 | 0.01 | 83 | 1020.4 |
| 20260506212005 | 56 | 271 | 0.0 | 3.0 | 0.00 | 0.01 | 0.01 | 83 | 1020.5 |
| 20260506211005 | 56 | 227 | 1.0 | 5.0 | 0.00 | 0.01 | 0.01 | 84 | 1020.4 |
| 20260506210005 | 56 | 208 | 2.0 | 3.0 | 0.00 | 0.01 | 0.01 | 84 | 1020.4 |
| 20260506205005 | 55 | 208 | 3.0 | 5.0 | 0.00 | 0.01 | 0.01 | 84 | 1020.4 |
| 20260506204005 | 55 | 231 | 2.0 | 5.0 | 0.00 | 0.01 | 0.01 | 85 | 1020.4 |
| 20260506203005 | 55 | 233 | 3.0 | 3.0 | 0.00 | 0.01 | 0.01 | 85 | 1020.3 |
| 20260506201005 | 55 | 245 | 3.0 | 6.0 | 0.00 | 0.01 | 0.01 | 85 | 1020.3 |
| 20260506200005 | 55 | 213 | 5.0 | 8.0 | 0.00 | 0.01 | 0.01 | 85 | 1020.3 |
| 20260506194005 | 55 | 214 | 1.0 | 3.0 | 0.00 | 0.01 | 0.01 | 85 | 1020.1 |
| 20260506193005 | 55 | 225 | 2.0 | 3.0 | 0.00 | 0.01 | 0.01 | 86 | 1020.2 |
| 20260506192005 | 54 | 230 | 2.0 | 5.0 | 0.00 | 0.01 | 0.01 | 86 | 1020.2 |
| 20260506191005 | 54 | 236 | 1.0 | 6.0 | 0.00 | 0.01 | 0.01 | 86 | 1020.2 |
| 20260506190006 | 54 | 261 | 2.0 | 3.0 | 0.00 | 0.01 | 0.01 | 87 | 1020.2 |
| 20260506184005 | 54 | 221 | 1.0 | 5.0 | 0.00 | 0.01 | 0.01 | 87 | 1020.2 |
| 20260506182005 | 54 | 220 | 2.0 | 3.0 | 0.00 | 0.01 | 0.01 | 88 | 1020.0 |
| 20260506181005 | 54 | 243 | 3.0 | 5.0 | 0.00 | 0.01 | 0.01 | 89 | 1020.0 |
| 20260506180005 | 54 | 225 | 1.0 | 2.0 | 0.00 | 0.01 | 0.01 | 90 | 1020.0 |
| 20260506175005 | 53 | 316 | 1.0 | 3.0 | 0.00 | 0.01 | 0.01 | 90 | 1020.1 |
| 20260506174005 | 53 | 230 | 1.0 | 3.0 | 0.00 | 0.01 | 0.01 | 90 | 1020.1 |
| 20260506173005 | 53 | 308 | 1.0 | 3.0 | 0.00 | 0.01 | 0.01 | 90 | 1020.1 |
| 20260506172005 | 53 | 230 | 2.0 | 3.0 | 0.00 | 0.01 | 0.01 | 90 | 1020.0 |
| 20260506170005 | 53 | 224 | 3.0 | 7.0 | 0.00 | 0.01 | 0.01 | 91 | 1019.9 |
| 20260506164005 | 53 | 177 | 2.0 | 3.0 | 0.00 | 0.01 | 0.01 | 92 | 1019.5 |
| 20260506163005 | 53 | 198 | 0.0 | 3.0 | 0.00 | 0.01 | 0.01 | 93 | 1019.5 |
| 20260506162006 | 53 | 200 | 2.0 | 3.0 | 0.00 | 0.01 | 0.01 | 93 | 1019.5 |
| 20260506161005 | 53 | 194 | 2.0 | 3.0 | 0.01 | 0.01 | 0.01 | 93 | 1019.7 |
| 20260506160005 | 52 | 261 | 2.0 | 5.0 | 0.01 | 0.01 | 0.01 | 93 | 1019.7 |
| 20260506154004 | 52 | 234 | 1.0 | 3.0 | 0.01 | 0.01 | 0.01 | 94 | 1019.5 |
| 20260506152004 | 52 | 162 | 1.0 | 3.0 | 0.01 | 0.01 | 0.01 | 93 | 1019.6 |
| 20260506151005 | 52 | 247 | 1.0 | 2.0 | 0.00 | 0.00 | 0.00 | 93 | 1019.6 |
| 20260506150005 | 52 | 260 | 2.0 | 3.0 | 0.00 | 0.00 | 0.00 | 93 | 1019.8 |
| 20260506145005 | 52 | 187 | 3.0 | 3.0 | 0.00 | 0.00 | 0.00 | 93 | 1019.4 |
| 20260506144004 | 52 | 184 | 3.0 | 5.0 | 0.00 | 0.00 | 0.00 | 93 | 1019.2 |
| 20260506143005 | 52 | 230 | 2.0 | 3.0 | 0.00 | 0.00 | 0.00 | 93 | 1019.4 |
| 20260506142005 | 52 | 202 | 2.0 | 3.0 | 0.00 | 0.00 | 0.00 | 93 | 1019.4 |
| 20260506141005 | 52 | 195 | 1.0 | 3.0 | 0.00 | 0.00 | 0.00 | 93 | 1019.4 |
| 20260506135005 | 52 | 218 | 0.0 | 2.0 | 0.00 | 0.00 | 0.00 | 93 | 1019.4 |
| 20260506134005 | 52 | 263 | 1.0 | 2.0 | 0.00 | 0.00 | 0.00 | 93 | 1019.3 |
| 20260506133005 | 52 | 192 | 1.0 | 2.0 | 0.00 | 0.00 | 0.00 | 93 | 1018.8 |
| 20260506132005 | 52 | 211 | 0.0 | 3.0 | 0.00 | 0.00 | 0.00 | 92 | 1019.0 |
| 20260506131005 | 52 | 188 | 1.0 | 3.0 | 0.00 | 0.00 | 0.00 | 92 | 1018.8 |
| 20260506130005 | 52 | 192 | 2.0 | 5.0 | 0.00 | 0.00 | 0.00 | 92 | 1018.9 |
| 20260506124004 | 52 | 238 | 1.0 | 3.0 | 0.00 | 0.00 | 0.00 | 92 | 1018.7 |
| 20260506122004 | 53 | 223 | 1.0 | 2.0 | 0.00 | 0.00 | 0.00 | 91 | 1018.7 |
| 20260506121005 | 53 | 213 | 0.0 | 2.0 | 0.00 | 0.00 | 0.00 | 91 | 1018.5 |
| 20260506120005 | 53 | 188 | 1.0 | 5.0 | 0.00 | 0.00 | 0.00 | 90 | 1018.4 |
| 20260506115005 | 53 | 221 | 2.0 | 6.0 | 0.00 | 0.00 | 0.00 | 90 | 1018.4 |
| 20260506114004 | 53 | 238 | 3.0 | 3.0 | 0.00 | 0.00 | 0.00 | 89 | 1018.5 |
| 20260506113005 | 53 | 171 | 3.0 | 3.0 | 0.00 | 0.00 | 0.00 | 88 | 1018.5 |
| 20260506112005 | 53 | 190 | 0.0 | 3.0 | 0.00 | 0.00 | 0.00 | 88 | 1018.4 |
| 20260506105005 | 54 | 250 | 0.0 | 1.0 | 0.00 | 0.00 | 0.00 | 87 | 1018.2 |
| 20260506104005 | 54 | 250 | 1.0 | 2.0 | 0.00 | 0.00 | 0.00 | 87 | 1018.1 |
| 20260506103005 | 54 | 306 | 0.0 | 3.0 | 0.00 | 0.00 | 0.00 | 87 | 1018.0 |
| 20260506102005 | 54 | 248 | 3.0 | 3.0 | 0.00 | 0.00 | 0.00 | 87 | 1018.0 |
| 20260506101005 | 54 | 232 | 2.0 | 3.0 | 0.00 | 0.00 | 0.00 | 86 | 1017.8 |
| 20260506100005 | 54 | 261 | 3.0 | 3.0 | 0.00 | 0.00 | 0.00 | 87 | 1017.7 |
| 20260506095004 | 54 | 249 | 1.0 | 3.0 | 0.00 | 0.00 | 0.00 | 87 | 1017.7 |
| 20260506094004 | 54 | 248 | 0.0 | 2.0 | 0.00 | 0.00 | 0.00 | 87 | 1017.6 |
| 20260506093004 | 54 | 242 | 3.0 | 3.0 | 0.00 | 0.00 | 0.00 | 87 | 1017.5 |
| 20260506092004 | 54 | 233 | 3.0 | 3.0 | 0.00 | 0.00 | 0.00 | 87 | 1017.4 |
| 20260506091005 | 54 | 226 | 3.0 | 3.0 | 0.00 | 0.00 | 0.00 | 87 | 1017.4 |
| 20260506090004 | 54 | 227 | 3.0 | 3.0 | 0.00 | 0.00 | 0.00 | 88 | 1017.3 |
| 20260506085005 | 54 | 208 | 3.0 | 3.0 | 0.00 | 0.00 | 0.00 | 89 | 1017.3 |
| 20260506084005 | 54 | 244 | 3.0 | 3.0 | 0.00 | 0.00 | 0.00 | 90 | 1017.2 |
| 20260506083005 | 54 | 200 | 0.0 | 0.0 | 0.00 | 0.00 | 0.00 | 91 | 1017.2 |
| 20260506082004 | 53 | 200 | 0.0 | 0.0 | 0.00 | 0.00 | 0.00 | 92 | 1017.2 |
| 20260506072005 | 53 | 200 | 0.0 | 0.0 | 0.00 | 0.00 | 0.00 | 91 | 1016.9 |
| 20260506071004 | 52 | 200 | 0.0 | 1.0 | 0.00 | 0.00 | 0.00 | 91 | 1016.9 |